This is the latest recevied weather packets stored in our database for station/object KE8URB. If no packets are shown the sender has not sent any weather packets the latest 10 day(s).
| Time | Temp. | Humidity | Pressure | Rain* | Wind** | Luminosity | Snow |
|---|---|---|---|---|---|---|---|
| 1787681016 | 24.44° C | 67% | 1020.3 hPa | 0 mm | - | 112 W/m² | - |
| 1787680716 | 24.44° C | 66% | 1020.4 hPa | 0 mm | - | 123 W/m² | - |
| 1787680415 | 24.44° C | 64% | 1020.4 hPa | 0 mm | - | 134 W/m² | - |
| 1787680113 | 23.89° C | 67% | 1020.4 hPa | 0 mm | - | 108 W/m² | - |
| 1787679808 | 23.89° C | 62% | 1020.4 hPa | 0 mm | - | 93 W/m² | - |
| 1787679508 | 23.89° C | 64% | 1020.5 hPa | 0 mm | - | 75 W/m² | - |
| 1787679204 | 23.33° C | 66% | 1020.5 hPa | 0 mm | - | 72 W/m² | - |
| 1787678899 | 23.33° C | 70% | 1020.5 hPa | 0 mm | - | 208 W/m² | - |
| 1787678598 | 23.33° C | 66% | 1020.4 hPa | 0 mm | - | 65 W/m² | - |
| 1787678294 | 23.89° C | 63% | 1020.5 hPa | 0 mm | - | 62 W/m² | - |
| 1787677989 | 23.89° C | 65% | 1020.5 hPa | 0 mm | - | 61 W/m² | - |
| 1787677684 | 23.33° C | 72% | 1020.7 hPa | 0 mm | - | 56 W/m² | - |
| 1787677383 | 23.33° C | 68% | 1020.7 hPa | 0 mm | - | 67 W/m² | - |
| 1787677082 | 22.78° C | 61% | 1020.8 hPa | 0 mm | - | 57 W/m² | - |
| 1787676778 | 22.78° C | 64% | 1020.5 hPa | 0 mm | - | 67 W/m² | - |
| 1787676473 | 23.33° C | 68% | 1020.7 hPa | 0 mm | - | 52 W/m² | - |
| 1787676171 | 22.78° C | 67% | 1020.7 hPa | 0 mm | - | 49 W/m² | - |
| 1787675870 | 22.78° C | 69% | 1020.8 hPa | 0 mm | - | 57 W/m² | - |
| 1787675567 | 23.33° C | 66% | 1020.7 hPa | 0 mm | - | 63 W/m² | - |
| 1787675264 | 23.33° C | 65% | 1020.8 hPa | 0 mm | - | 85 W/m² | - |
| 1787674959 | 23.33° C | 69% | 1020.8 hPa | 0 mm | - | 49 W/m² | - |
| 1787674656 | 22.78° C | 68% | 1020.8 hPa | 0 mm | - | 50 W/m² | - |
| 1787674351 | 22.78° C | 66% | 1020.8 hPa | 0 mm | - | 76 W/m² | - |
| 1787674047 | 22.78° C | 65% | 1021 hPa | 0 mm | - | 54 W/m² | - |
| 1787673741 | 22.78° C | 72% | 1021.3 hPa | 0 mm | - | 41 W/m² | - |
* Rain latest hour (hover to see other rain measurements)
** Current wind speed in m/s (hover to see current wind gust speed)